Starlink 32248

operational
NORAD ID: 61219 Int'l Des: 2024-171 Owner: SPXS Country: US Constellation: starlink
LEOCIRCULAR

关于 Starlink 32248

正在加载描述...

实时位置

正在加载3D地球...

即将过境

高度历史

Altitude vs Time

uPlot chart will show altitude changes over time

两行轨道根数

1 61219U 24171V 25258.43723155 .00002484 00000-0 96023-4 0 9998
2 61219 53.1613 56.6736 0001300 93.6882 266.4268 15.30185557 56446
Epoch: Sep 15, 2025 • Age: 15 hours

当前状态

高度 480.3 km
速度 7.63 km/s
星下点 50.57°N, 157.75°E
发射日期 Sep 20, 2024
运行时间 0.9 years
类型 internet

技术详情

分类 Payload
质量 730.00 kg
干质量 700.00 kg
总质量 730.00 kg
长度 0.30 m
直径 4.10 m
跨度 29.00 m
形状 Box + pan
制造商 SPXS
平台类型 Starlink V2M
阶段状态 In Orbit
所有者/国家 SPXS/US

大型星座

Loading constellations...